sat.trackr.live / text

‹ back to catalog

STARLINK-11673 [DTC]

NORAD 64318 · 2025-124B

PAYLOAD ACTIVE UNKNOWN

§ Identity

Operator
Country
US
Launch date
2025-06-10
Launch site
AFETR
Launch vehicle
Mass (kg)
RCS (m²)

Purposes: comms

External: N2YO · Heavens-Above · Gunter

§ Orbital elements

Epoch: 2026-05-25T02:40:43.521312Z

Period
91.67 min
Inclination
43.0007°
Eccentricity
0.0001079
Mean motion
15.70883419 rev/d
Perigee alt
355.6 km
Apogee alt
357.1 km
Semi-major
6,734.5 km
B*
1.5552e-3
RAAN
288.5627°
Arg perigee
45.4530°
Mean anomaly
314.6426°
Rev number
5,485

§ Raw data

STARLINK-11673 [DTC]1 64318U 25124B   26145.11161483  .00204459  00000+0  15552-2 0  99922 64318  43.0007 288.5627 0001079  45.4530 314.6426 15.70883419 54858

JSON: /api/v1/satellites/64318 · /tle

For live sub-satellite position, see the globe view (requires WebGL).

§ Visibility from observer

Set your observer location to see the next 7 days of passes ≥ 10°. The values pass through the URL so the page stays shareable.

No JS? Fill the form by hand. The geolocation button needs JavaScript.